Zurück zum Katalog

STARLINK-11575

AktivKommunikationVLEO
NORAD 63308·PAYLOAD·🇺🇸 United States

Gestartet Mar 18, 2025 von Cape Canaveral Space Force Station

Loading…

Nächste Überflüge (nächste 24 Stunden)

TLE

AktuellSource: CelesTrak SupGP

Epoche: Sep 15, 2026, 03:00 UTC

1 63308C 25057B   26258.12548611 -.00049395  00000+0 -38367-3 0  2589
2 63308  43.0004 202.7191 0001482 270.0004 336.4162 15.70862287    15

Verfolge STARLINK-11575 in Echtzeit mit AllMySat

Download on the App Store